Pajares, Asturias

latitud = 42° 58' 37''N | longitud = 005° 46' 41''W
1460 metros sobre el nivel del mar | datos mensuales

Fecha, hora, temperatura, viento dirección y velocidad, humedad y presión.

  • 21-01-2018 02:00:00 | 6.30°C | Norte |8.00 km/h | 81.00% | 0.00 hPa
  • 21-01-2018 01:00:00 | 6.70°C | Noroeste |18.00 km/h | 78.00% | 0.00 hPa
  • 21-01-2018 00:00:00 | 6.50°C | Noroeste |4.00 km/h | 79.00% | 0.00 hPa
  • 20-01-2018 23:00:00 | 6.60°C | Noroeste |8.00 km/h | 81.00% | 0.00 hPa
  • 20-01-2018 22:00:00 | 6.60°C | Noroeste |10.00 km/h | 82.00% | 0.00 hPa
  • 20-01-2018 21:00:00 | 6.50°C | Norte |8.00 km/h | 83.00% | 0.00 hPa
  • 20-01-2018 20:00:00 | 6.10°C | Noroeste |8.00 km/h | 86.00% | 0.00 hPa
  • 20-01-2018 19:00:00 | 6.30°C | Norte |5.00 km/h | 81.00% | 0.00 hPa
  • 20-01-2018 18:00:00 | 6.50°C | Oeste |7.00 km/h | 78.00% | 0.00 hPa
  • 20-01-2018 17:00:00 | 6.30°C | Calma |0.00 km/h | 82.00% | 0.00 hPa
  • 20-01-2018 16:00:00 | 6.30°C | Oeste |3.00 km/h | 82.00% | 0.00 hPa
  • 20-01-2018 15:00:00 | 6.20°C | Norte |6.00 km/h | 79.00% | 0.00 hPa
  • 20-01-2018 14:00:00 | 0.00°C | 0 |0.00 km/h | 0.00% | 0.00 hPa
  • 20-01-2018 13:00:00 | 0.00°C | 0 |0.00 km/h | 0.00% | 0.00 hPa
  • 20-01-2018 12:00:00 | 6.90°C | Noroeste |11.00 km/h | 64.00% | 0.00 hPa
  • 20-01-2018 11:00:00 | 6.50°C | Noroeste |10.00 km/h | 53.00% | 0.00 hPa
  • 20-01-2018 10:00:00 | 4.70°C | Noroeste |4.00 km/h | 44.00% | 0.00 hPa
  • 20-01-2018 09:00:00 | 5.10°C | Noroeste |8.00 km/h | 38.00% | 0.00 hPa
  • 20-01-2018 08:00:00 | 5.60°C | Norte |6.00 km/h | 39.00% | 0.00 hPa
  • 20-01-2018 07:00:00 | 0.00°C | 0 |0.00 km/h | 0.00% | 0.00 hPa
  • 20-01-2018 06:00:00 | 0.00°C | 0 |0.00 km/h | 0.00% | 0.00 hPa
  • 20-01-2018 05:00:00 | 0.00°C | 0 |0.00 km/h | 0.00% | 0.00 hPa
  • 20-01-2018 04:00:00 | 0.00°C | 0 |0.00 km/h | 0.00% | 0.00 hPa
  • 20-01-2018 03:00:00 | 3.80°C | Nordeste |5.00 km/h | 38.00% | 0.00 hPa